Location: Dzierzno
(50.6159°N, 19.2852°E)
Time: 20:29:50
(UTC+00:00)

Cosmos 2233 Rocket - Pass Details

Date: 18 November 2025
Orbit: 952 x 989 km, 82.9° (Epoch: 10 December)

Event Time Altitude Azimuth Distance (km) Brightness Sun altitude
Rises 15:39:25 0° 181° (S) 3,681 7.3 -7.5°
Reaches altitude 10° 15:41:55 10° 180° (S) 2,740 6.7 -7.9°
Maximum altitude 15:48:12 76° 96° (E) 1,023 4.0 -8.8°
Drops below altitude 10° 15:54:32 10° 12° (NNE) 2,762 6.1 -9.7°
Sets 15:57:04 0° 11° (NNE) 3,713 6.7 -10.1°
